Time,TemperatureF,DewpointF,PressureIn,WindDirection,WindDirectionDegrees,WindSpeedMPH,WindSpeedGustMPH,Humidity,HourlyPrecipIn,Conditions,Clouds,dailyrainin,SoftwareType,DateUTC
2013-01-14 00:04:00,59.6,59.0,30.15,WSW,251,5.0,7.0,97,0.00,,,0.00,weatherlink.com 1.10,2013-01-14 05:04:00,
2013-01-14 00:19:00,58.5,57.0,30.15,WSW,255,2.0,8.0,96,0.00,,,0.00,weatherlink.com 1.10,2013-01-14 05:19:00,
2013-01-14 00:34:00,57.9,57.0,30.15,West,268,2.0,6.0,96,0.00,,,0.00,weatherlink.com 1.10,2013-01-14 05:34:00,
2013-01-14 00:50:00,57.9,57.0,30.15,WSW,246,4.0,6.0,97,0.00,,,0.00,weatherlink.com 1.10,2013-01-14 05:50:00,
2013-01-14 01:05:00,57.9,57.0,30.15,West,262,1.0,5.0,97,0.00,,,0.00,weatherlink.com 1.10,2013-01-14 06:05:00,
2013-01-14 01:20:00,58.0,57.0,30.15,WSW,254,6.0,7.0,97,0.00,,,0.00,weatherlink.com 1.10,2013-01-14 06:20:00,
2013-01-14 01:35:00,57.9,57.0,30.16,West,274,4.0,6.0,97,0.00,,,0.00,weatherlink.com 1.10,2013-01-14 06:35:00,
2013-01-14 01:50:00,58.4,58.0,30.16,West,261,2.0,9.0,97,0.00,,,0.00,weatherlink.com 1.10,2013-01-14 06:50:00,
2013-01-14 02:05:00,58.7,58.0,30.16,WNW,302,3.0,7.0,97,0.00,,,0.00,weatherlink.com 1.10,2013-01-14 07:05:00,
2013-01-14 02:20:00,58.7,58.0,30.16,WSW,247,5.0,7.0,97,0.00,,,0.00,weatherlink.com 1.10,2013-01-14 07:20:00,
2013-01-14 02:35:00,58.4,58.0,30.16,West,279,3.0,8.0,97,0.00,,,0.00,weatherlink.com 1.10,2013-01-14 07:35:00,
2013-01-14 02:50:00,58.3,58.0,30.17,WSW,248,4.0,8.0,97,0.00,,,0.00,weatherlink.com 1.10,2013-01-14 07:50:00,
2013-01-14 03:05:00,58.4,58.0,30.16,WSW,251,5.0,8.0,97,0.00,,,0.00,weatherlink.com 1.10,2013-01-14 08:05:00,
2013-01-14 03:20:00,57.4,57.0,30.15,SSW,207,2.0,6.0,97,0.00,,,0.00,weatherlink.com 1.10,2013-01-14 08:20:00,
2013-01-14 03:35:00,57.3,57.0,30.15,WSW,248,4.0,6.0,97,0.00,,,0.00,weatherlink.com 1.10,2013-01-14 08:35:00,
2013-01-14 03:50:00,57.2,56.0,30.14,WSW,250,5.0,7.0,97,0.00,,,0.00,weatherlink.com 1.10,2013-01-14 08:50:00,
2013-01-14 04:05:00,57.4,57.0,30.14,WSW,257,4.0,7.0,97,0.00,,,0.00,weatherlink.com 1.10,2013-01-14 09:05:00,
2013-01-14 04:20:00,57.2,56.0,30.13,WSW,238,3.0,8.0,97,0.00,,,0.00,weatherlink.com 1.10,2013-01-14 09:20:00,
2013-01-14 04:35:00,57.1,56.0,30.12,WSW,237,2.0,6.0,97,0.00,,,0.00,weatherlink.com 1.10,2013-01-14 09:35:00,
2013-01-14 04:50:00,57.1,56.0,30.11,SSW,208,5.0,8.0,97,0.00,,,0.00,weatherlink.com 1.10,2013-01-14 09:50:00,
2013-01-14 05:05:00,56.7,56.0,30.12,West,277,3.0,10.0,97,0.00,,,0.00,weatherlink.com 1.10,2013-01-14 10:05:00,
2013-01-14 05:20:00,56.7,56.0,30.11,WSW,242,1.0,4.0,97,0.00,,,0.00,weatherlink.com 1.10,2013-01-14 10:20:00,
2013-01-14 05:35:00,56.8,56.0,30.12,West,281,3.0,5.0,97,0.00,,,0.00,weatherlink.com 1.10,2013-01-14 10:35:00,
2013-01-14 05:50:00,57.1,56.0,30.13,West,279,3.0,5.0,97,0.00,,,0.00,weatherlink.com 1.10,2013-01-14 10:50:00,
2013-01-14 06:05:00,57.3,57.0,30.13,West,264,5.0,6.0,97,0.01,,,0.01,weatherlink.com 1.10,2013-01-14 11:05:00,
2013-01-14 06:20:00,57.7,57.0,30.14,West,279,3.0,7.0,97,0.01,,,0.01,weatherlink.com 1.10,2013-01-14 11:20:00,
2013-01-14 06:35:00,58.6,58.0,30.14,West,265,4.0,8.0,97,0.01,,,0.01,weatherlink.com 1.10,2013-01-14 11:35:00,
2013-01-14 06:50:00,59.0,58.0,30.15,West,263,2.0,8.0,97,0.01,,,0.01,weatherlink.com 1.10,2013-01-14 11:50:00,
2013-01-14 07:05:00,58.9,58.0,30.16,West,259,3.0,9.0,98,0.00,,,0.01,weatherlink.com 1.10,2013-01-14 12:05:00,
2013-01-14 07:20:00,58.7,58.0,30.16,WSW,247,4.0,8.0,97,0.00,,,0.01,weatherlink.com 1.10,2013-01-14 12:20:00,
2013-01-14 07:50:00,58.2,57.0,30.17,SSW,211,5.0,8.0,97,0.00,,,0.01,weatherlink.com 1.10,2013-01-14 12:50:00,
2013-01-14 08:05:00,58.4,58.0,30.17,WSW,247,6.0,9.0,97,0.00,,,0.01,weatherlink.com 1.10,2013-01-14 13:05:00,
2013-01-14 08:20:00,58.9,58.0,30.18,WSW,247,4.0,8.0,98,0.00,,,0.01,weatherlink.com 1.10,2013-01-14 13:20:00,
2013-01-14 08:35:00,58.8,58.0,30.18,West,262,4.0,9.0,97,0.00,,,0.01,weatherlink.com 1.10,2013-01-14 13:35:00,
2013-01-14 08:50:00,59.9,59.0,30.19,WSW,254,2.0,7.0,97,0.00,,,0.01,weatherlink.com 1.10,2013-01-14 13:50:00,
2013-01-14 09:05:00,59.1,58.0,30.19,SSW,212,2.0,9.0,97,0.00,,,0.01,weatherlink.com 1.10,2013-01-14 14:05:00,
2013-01-14 09:20:00,60.1,59.0,30.19,WSW,250,4.0,7.0,97,0.00,,,0.01,weatherlink.com 1.10,2013-01-14 14:20:00,
2013-01-14 09:35:00,58.9,58.0,30.19,WSW,254,5.0,8.0,97,0.00,,,0.01,weatherlink.com 1.10,2013-01-14 14:35:00,
2013-01-14 09:50:00,58.8,58.0,30.19,WSW,251,4.0,7.0,97,0.00,,,0.01,weatherlink.com 1.10,2013-01-14 14:50:00,
2013-01-14 10:05:00,59.2,59.0,30.19,West,270,3.0,8.0,98,0.00,,,0.01,weatherlink.com 1.10,2013-01-14 15:05:00,
2013-01-14 10:20:00,60.5,60.0,30.19,WSW,247,3.0,8.0,97,0.00,,,0.01,weatherlink.com 1.10,2013-01-14 15:20:00,
2013-01-14 10:35:00,61.3,61.0,30.19,West,272,1.0,7.0,98,0.00,,,0.01,weatherlink.com 1.10,2013-01-14 15:35:00,
2013-01-14 10:50:00,61.1,61.0,30.19,WSW,254,6.0,8.0,98,0.00,,,0.01,weatherlink.com 1.10,2013-01-14 15:50:00,
2013-01-14 11:05:00,62.4,62.0,30.18,SW,225,10.0,10.0,98,0.00,,,0.01,weatherlink.com 1.10,2013-01-14 16:05:00,
2013-01-14 11:20:00,61.9,61.0,30.17,West,260,6.0,9.0,97,0.00,,,0.01,weatherlink.com 1.10,2013-01-14 16:20:00,
2013-01-14 11:35:00,60.4,60.0,30.16,SW,235,8.0,10.0,97,0.00,,,0.01,weatherlink.com 1.10,2013-01-14 16:35:00,
2013-01-14 11:50:00,60.1,59.0,30.15,SW,234,2.0,11.0,97,0.00,,,0.01,weatherlink.com 1.10,2013-01-14 16:50:00,
2013-01-14 12:05:00,60.5,60.0,30.15,SW,218,8.0,11.0,98,0.00,,,0.01,weatherlink.com 1.10,2013-01-14 17:05:00,
2013-01-14 12:20:00,63.1,63.0,30.14,West,270,6.0,10.0,98,0.00,,,0.01,weatherlink.com 1.10,2013-01-14 17:20:00,
2013-01-14 12:35:00,63.8,62.0,30.14,WSW,240,10.0,12.0,95,0.00,,,0.01,weatherlink.com 1.10,2013-01-14 17:35:00,
2013-01-14 12:50:00,62.3,61.0,30.13,WSW,242,5.0,11.0,95,0.00,,,0.01,weatherlink.com 1.10,2013-01-14 17:50:00,
2013-01-14 13:06:00,63.5,62.0,30.12,WSW,237,8.0,13.0,95,0.00,,,0.01,weatherlink.com 1.10,2013-01-14 18:06:00,
2013-01-14 13:21:00,68.8,66.0,30.12,WSW,249,8.0,12.0,91,0.00,,,0.01,weatherlink.com 1.10,2013-01-14 18:21:00,
2013-01-14 13:36:00,65.2,63.0,30.12,SW,230,5.0,13.0,91,0.00,,,0.01,weatherlink.com 1.10,2013-01-14 18:36:00,
2013-01-14 13:51:00,64.5,61.0,30.12,WSW,240,6.0,12.0,89,0.00,,,0.01,weatherlink.com 1.10,2013-01-14 18:51:00,
2013-01-14 14:06:00,63.1,60.0,30.12,SSW,209,3.0,9.0,89,0.00,,,0.01,weatherlink.com 1.10,2013-01-14 19:06:00,
2013-01-14 14:21:00,62.7,60.0,30.13,West,269,6.0,7.0,90,0.00,,,0.01,weatherlink.com 1.10,2013-01-14 19:21:00,
2013-01-14 14:36:00,63.3,60.0,30.13,SW,233,5.0,8.0,90,0.00,,,0.01,weatherlink.com 1.10,2013-01-14 19:36:00,
2013-01-14 14:51:00,64.0,61.0,30.13,WSW,245,6.0,11.0,90,0.00,,,0.01,weatherlink.com 1.10,2013-01-14 19:51:00,
2013-01-14 15:06:00,63.8,61.0,30.13,WSW,245,4.0,11.0,90,0.00,,,0.01,weatherlink.com 1.10,2013-01-14 20:06:00,
2013-01-14 15:21:00,63.5,61.0,30.13,WSW,237,3.0,8.0,90,0.00,,,0.01,weatherlink.com 1.10,2013-01-14 20:21:00,
2013-01-14 15:36:00,63.3,60.0,30.14,SW,214,2.0,8.0,88,0.00,,,0.01,weatherlink.com 1.10,2013-01-14 20:36:00,
2013-01-14 15:51:00,62.0,59.0,30.14,West,259,5.0,12.0,90,0.00,,,0.01,weatherlink.com 1.10,2013-01-14 20:51:00,
2013-01-14 16:06:00,62.6,60.0,30.14,WSW,252,0.0,8.0,90,0.00,,,0.01,weatherlink.com 1.10,2013-01-14 21:06:00,
2013-01-14 16:21:00,62.3,60.0,30.14,WSW,249,1.0,8.0,91,0.00,,,0.01,weatherlink.com 1.10,2013-01-14 21:21:00,
2013-01-14 16:36:00,62.5,60.0,30.15,NNW,328,5.0,10.0,92,0.00,,,0.01,weatherlink.com 1.10,2013-01-14 21:36:00,
2013-01-14 16:51:00,61.5,59.0,30.15,SW,223,7.0,15.0,92,0.00,,,0.01,weatherlink.com 1.10,2013-01-14 21:51:00,
2013-01-14 17:06:00,60.9,59.0,30.15,West,264,6.0,10.0,94,0.00,,,0.01,weatherlink.com 1.10,2013-01-14 22:06:00,
2013-01-14 17:21:00,60.4,59.0,30.16,West,273,5.0,8.0,94,0.00,,,0.01,weatherlink.com 1.10,2013-01-14 22:21:00,
2013-01-14 17:36:00,60.5,59.0,30.16,WSW,247,9.0,10.0,95,0.00,,,0.01,weatherlink.com 1.10,2013-01-14 22:36:00,
2013-01-14 17:51:00,60.7,59.0,30.16,WNW,286,5.0,13.0,95,0.00,,,0.01,weatherlink.com 1.10,2013-01-14 22:51:00,
2013-01-14 18:06:00,60.4,59.0,30.16,WSW,255,7.0,10.0,96,0.00,,,0.01,weatherlink.com 1.10,2013-01-14 23:06:00,
2013-01-14 18:21:00,60.2,59.0,30.17,WSW,244,8.0,8.0,95,0.00,,,0.01,weatherlink.com 1.10,2013-01-14 23:21:00,
2013-01-14 18:36:00,59.8,59.0,30.17,West,271,4.0,8.0,96,0.00,,,0.01,weatherlink.com 1.10,2013-01-14 23:36:00,
2013-01-14 18:51:00,58.9,58.0,30.17,WSW,251,2.0,5.0,96,0.00,,,0.01,weatherlink.com 1.10,2013-01-14 23:51:00,
2013-01-14 19:06:00,59.2,58.0,30.17,WSW,250,4.0,8.0,96,0.00,,,0.01,weatherlink.com 1.10,2013-01-15 00:06:00,
2013-01-14 19:21:00,59.1,58.0,30.16,West,269,1.0,8.0,96,0.00,,,0.01,weatherlink.com 1.10,2013-01-15 00:21:00,
2013-01-14 19:36:00,58.7,58.0,30.16,WSW,250,5.0,7.0,96,0.00,,,0.01,weatherlink.com 1.10,2013-01-15 00:36:00,
2013-01-14 19:51:00,58.4,57.0,30.16,WSW,252,3.0,8.0,96,0.00,,,0.01,weatherlink.com 1.10,2013-01-15 00:51:00,
2013-01-14 20:06:00,58.2,57.0,30.16,WSW,254,2.0,6.0,97,0.00,,,0.01,weatherlink.com 1.10,2013-01-15 01:06:00,
2013-01-14 20:23:00,58.4,58.0,30.16,WSW,247,6.0,8.0,97,0.00,,,0.01,weatherlink.com 1.10,2013-01-15 01:23:00,
2013-01-14 20:36:00,58.4,58.0,30.16,West,269,4.0,10.0,97,0.00,,,0.01,weatherlink.com 1.10,2013-01-15 01:36:00,
2013-01-14 20:51:00,57.9,57.0,30.16,West,263,8.0,9.0,97,0.00,,,0.01,weatherlink.com 1.10,2013-01-15 01:51:00,
2013-01-14 21:06:00,57.7,57.0,30.16,WSW,254,7.0,8.0,97,0.00,,,0.01,weatherlink.com 1.10,2013-01-15 02:06:00,
2013-01-14 21:21:00,58.1,57.0,30.15,WSW,255,7.0,8.0,97,0.00,,,0.01,weatherlink.com 1.10,2013-01-15 02:21:00,
2013-01-14 21:36:00,58.3,58.0,30.15,West,271,2.0,9.0,97,0.00,,,0.01,weatherlink.com 1.10,2013-01-15 02:36:00,
2013-01-14 21:51:00,57.3,56.0,30.16,WSW,238,5.0,9.0,96,0.00,,,0.01,weatherlink.com 1.10,2013-01-15 02:51:00,
2013-01-14 22:06:00,57.1,56.0,30.16,West,264,5.0,7.0,97,0.00,,,0.01,weatherlink.com 1.10,2013-01-15 03:06:00,
2013-01-14 22:21:00,57.2,56.0,30.16,WSW,248,5.0,8.0,97,0.00,,,0.01,weatherlink.com 1.10,2013-01-15 03:21:00,
2013-01-14 22:36:00,57.1,56.0,30.16,WSW,257,5.0,8.0,97,0.00,,,0.01,weatherlink.com 1.10,2013-01-15 03:36:00,
2013-01-14 22:51:00,57.3,57.0,30.16,WSW,244,5.0,8.0,97,0.00,,,0.01,weatherlink.com 1.10,2013-01-15 03:51:00,
2013-01-14 23:21:00,57.7,57.0,30.16,WSW,246,4.0,9.0,97,0.00,,,0.01,weatherlink.com 1.10,2013-01-15 04:21:00,
2013-01-14 23:36:00,57.6,57.0,30.15,WSW,243,5.0,9.0,97,0.00,,,0.01,weatherlink.com 1.10,2013-01-15 04:36:00,
2013-01-14 23:51:00,57.6,57.0,30.16,West,273,3.0,8.0,97,0.00,,,0.01,weatherlink.com 1.10,2013-01-15 04:51:00,